TimeCST,TemperatureF,Dew PointF,Humidity,Sea Level PressureIn,VisibilityMPH,Wind Direction,Wind SpeedMPH,Gust SpeedMPH,PrecipitationIn,Events,Conditions,WindDirDegrees,DateUTC
12:52 AM,25.0,19.0,78,30.10,10.0,West,6.9,-,N/A,,Overcast,280,2013-01-02 06:52:00
1:52 AM,28.0,24.1,85,30.09,4.0,WNW,10.4,-,0.00,Snow,Light Snow,300,2013-01-02 07:52:00
2:52 AM,28.9,24.1,82,30.11,9.0,NW,12.7,19.6,0.00,,Overcast,310,2013-01-02 08:52:00
3:52 AM,28.9,25.0,85,30.11,4.0,NW,13.8,23.0,0.00,Snow,Light Snow,320,2013-01-02 09:52:00
4:52 AM,28.0,25.0,88,30.11,8.0,NW,12.7,-,0.00,,Overcast,310,2013-01-02 10:52:00
5:16 AM,28.4,24.8,86,30.02,10.0,NW,11.5,-,N/A,,Overcast,310,2013-01-02 11:16:00
5:43 AM,28.4,24.8,86,30.02,10.0,NW,13.8,-,N/A,,Overcast,310,2013-01-02 11:43:00
5:52 AM,30.0,24.1,79,30.12,10.0,NW,13.8,-,N/A,,Overcast,310,2013-01-02 11:52:00
6:52 AM,28.9,25.0,85,30.14,10.0,WNW,13.8,19.6,N/A,,Overcast,300,2013-01-02 12:52:00
7:52 AM,28.9,23.0,78,30.16,10.0,WNW,11.5,-,N/A,,Overcast,300,2013-01-02 13:52:00
8:52 AM,28.9,23.0,78,30.16,1.5,NW,16.1,23.0,0.00,Snow,Light Snow,310,2013-01-02 14:52:00
9:00 AM,28.4,24.8,86,30.05,1.0,NW,15.0,24.2,0.00,Snow,Light Snow,320,2013-01-02 15:00:00
9:03 AM,28.4,24.8,86,30.05,2.0,NW,15.0,24.2,0.00,Snow,Light Snow,320,2013-01-02 15:03:00
9:10 AM,28.4,24.8,86,30.05,8.0,NNW,15.0,23.0,0.00,Snow,Light Snow,330,2013-01-02 15:10:00
9:22 AM,28.4,23.0,80,30.06,2.5,NNW,15.0,25.3,0.00,Snow,Light Snow,330,2013-01-02 15:22:00
9:29 AM,28.4,23.0,80,30.06,9.0,NNW,17.3,24.2,0.00,,Overcast,330,2013-01-02 15:29:00
9:52 AM,28.0,23.0,81,30.18,10.0,NNW,10.4,-,0.00,,Overcast,330,2013-01-02 15:52:00
10:52 AM,28.9,23.0,78,30.19,10.0,NW,6.9,-,N/A,,Overcast,310,2013-01-02 16:52:00
11:52 AM,30.0,21.9,72,30.18,10.0,NW,13.8,23.0,N/A,,Overcast,310,2013-01-02 17:52:00
12:52 PM,30.0,21.9,72,30.15,10.0,NW,20.7,28.8,N/A,,Overcast,320,2013-01-02 18:52:00
1:39 PM,30.2,21.2,69,30.05,10.0,NW,15.0,25.3,N/A,,Overcast,320,2013-01-02 19:39:00
1:52 PM,32.0,21.9,66,30.14,10.0,NW,20.7,27.6,N/A,,Overcast,310,2013-01-02 19:52:00
2:37 PM,30.2,21.2,69,30.05,10.0,WNW,20.7,26.5,N/A,,Overcast,300,2013-01-02 20:37:00
2:45 PM,30.2,21.2,69,30.06,10.0,NW,18.4,29.9,N/A,,Overcast,310,2013-01-02 20:45:00
2:52 PM,30.9,21.9,69,30.14,10.0,NW,16.1,27.6,N/A,,Overcast,320,2013-01-02 20:52:00
3:32 PM,30.2,23.0,75,30.08,2.0,NW,15.0,-,0.00,Snow,Light Snow,320,2013-01-02 21:32:00
3:43 PM,30.2,23.0,75,30.08,4.0,NNW,12.7,-,N/A,Snow,Light Snow,330,2013-01-02 21:43:00
3:52 PM,30.0,23.0,75,30.17,6.0,NW,12.7,18.4,0.00,Snow,Light Snow,320,2013-01-02 21:52:00
4:52 PM,26.1,21.0,81,30.20,6.0,NW,10.4,-,0.00,,Haze,310,2013-01-02 22:52:00
5:52 PM,24.1,19.0,81,30.22,10.0,NNW,16.1,26.5,0.00,,Clear,330,2013-01-02 23:52:00
6:41 PM,23.0,19.4,86,30.14,7.0,NW,13.8,-,N/A,,Overcast,310,2013-01-03 00:41:00
6:52 PM,23.0,19.0,85,30.24,8.0,NW,19.6,26.5,0.00,Snow,Light Snow,320,2013-01-03 00:52:00
7:52 PM,24.1,19.0,81,30.26,10.0,NNW,16.1,26.5,0.00,,Overcast,330,2013-01-03 01:52:00
8:52 PM,24.1,19.0,81,30.29,10.0,NNW,17.3,-,0.00,,Overcast,330,2013-01-03 02:52:00
9:12 PM,24.8,19.4,80,30.20,10.0,NNW,19.6,28.8,N/A,,Overcast,330,2013-01-03 03:12:00
9:52 PM,24.1,19.0,81,30.31,10.0,NNW,12.7,27.6,N/A,,Overcast,330,2013-01-03 03:52:00
10:52 PM,24.1,19.9,84,30.33,10.0,NNW,18.4,28.8,0.00,,Overcast,330,2013-01-03 04:52:00
11:52 PM,24.1,19.0,81,30.36,10.0,NNW,15.0,25.3,N/A,,Overcast,330,2013-01-03 05:52:00